HAZ2814 VVTS-ZGGG

Flight info

Callsign HAZ2814
Flight time N/A
Altitude 29000
Route PATMA5F PATMA Q2 SADAS Q7 MUMGA/K0865F350 Q1 DAN A1 IKELA/N0443F270 A1 BIGEX A461 IDUMA IDUMA9
Aircraft A321/M-SDE3FGHIRWY/LB1

Departure

Time N/A
Airport Tan Son Nhat International Airport (VVTS)

Arrival

Time 2026-05-05 14:00
Airport Guangzhou Baiyun International Airport (ZGGG)
Time Latitude Longitude Altitude Speed Heading
2026-05-05 13:43 22.27900 113.13919 4526 ft 262 kts 235°
2026-05-05 13:43 22.27217 113.12101 4116 ft 265 kts 259°
2026-05-05 13:44 22.27330 113.10120 3905 ft 269 kts 285°
2026-05-05 13:44 22.28226 113.08333 3915 ft 276 kts 311°
2026-05-05 13:44 22.29192 113.07440 3918 ft 277 kts 328°
2026-05-05 13:44 22.31656 113.06762 3914 ft 277 kts
2026-05-05 13:45 22.33554 113.07125 3912 ft 277 kts 13°
2026-05-05 13:45 22.35440 113.07551 3912 ft 276 kts 12°
2026-05-05 13:45 22.37316 113.07971 3913 ft 275 kts 11°
2026-05-05 13:45 22.39189 113.08387 3915 ft 275 kts 11°
2026-05-05 13:46 22.40431 113.08661 3916 ft 275 kts 11°
2026-05-05 13:46 22.42939 113.09218 3920 ft 275 kts 11°
2026-05-05 13:46 22.44789 113.09630 3918 ft 275 kts 11°
2026-05-05 13:46 22.46666 113.10046 3912 ft 275 kts 11°
2026-05-05 13:47 22.47935 113.10325 3917 ft 276 kts 11°
2026-05-05 13:47 22.50423 113.10874 3913 ft 275 kts 11°
2026-05-05 13:47 22.52301 113.11291 3917 ft 276 kts 12°
2026-05-05 13:47 22.54179 113.11708 3912 ft 276 kts 12°
2026-05-05 13:48 22.55449 113.11991 3912 ft 276 kts 12°
2026-05-05 13:48 22.57328 113.12410 3921 ft 276 kts 12°
2026-05-05 13:48 22.59209 113.12829 3916 ft 276 kts 11°
2026-05-05 13:48 22.61090 113.13246 3917 ft 276 kts 12°
2026-05-05 13:49 22.62968 113.13660 3919 ft 275 kts 12°
2026-05-05 13:49 22.64849 113.14075 3920 ft 276 kts 11°
2026-05-05 13:49 22.66735 113.14493 3920 ft 276 kts 11°
2026-05-05 13:49 22.68615 113.14911 3919 ft 276 kts 11°
2026-05-05 13:50 22.70493 113.15331 3921 ft 276 kts 12°
2026-05-05 13:50 22.72375 113.15753 3916 ft 276 kts 12°
2026-05-05 13:50 22.74257 113.16172 3921 ft 276 kts 11°
2026-05-05 13:50 22.76138 113.16590 3917 ft 276 kts 11°
2026-05-05 13:51 22.78016 113.17006 3923 ft 276 kts 11°
2026-05-05 13:51 22.79896 113.17424 3925 ft 276 kts 11°
2026-05-05 13:51 22.81754 113.17837 3929 ft 276 kts 11°
2026-05-05 13:51 22.83633 113.18256 3929 ft 276 kts 11°
2026-05-05 13:52 22.85512 113.18673 3927 ft 276 kts 11°
2026-05-05 13:52 22.87391 113.19090 3929 ft 276 kts 11°
2026-05-05 13:52 22.89270 113.19507 3929 ft 275 kts 11°
2026-05-05 13:52 22.91145 113.19925 3931 ft 276 kts 11°
2026-05-05 13:53 22.93022 113.20345 3924 ft 275 kts 11°
2026-05-05 13:53 22.94893 113.20763 3933 ft 275 kts 11°
2026-05-05 13:53 22.96765 113.21181 3931 ft 275 kts 11°
2026-05-05 13:53 22.98631 113.21596 3925 ft 274 kts 11°
2026-05-05 13:54 23.00501 113.22012 3928 ft 273 kts 11°
2026-05-05 13:54 23.02366 113.22428 3929 ft 274 kts 12°
2026-05-05 13:54 23.04231 113.22846 3930 ft 274 kts 11°
2026-05-05 13:54 23.06077 113.23259 3926 ft 264 kts 11°
2026-05-05 13:55 23.07856 113.23657 3927 ft 255 kts 11°
2026-05-05 13:55 23.09563 113.24039 3934 ft 253 kts 12°
2026-05-05 13:55 23.11289 113.24425 3930 ft 253 kts 11°
2026-05-05 13:55 23.13012 113.24810 3930 ft 253 kts 11°
2026-05-05 13:56 23.14736 113.25196 3935 ft 253 kts 12°
2026-05-05 13:56 23.16476 113.25468 3917 ft 254 kts
2026-05-05 13:56 23.18229 113.25732 3705 ft 254 kts 12°
2026-05-05 13:56 23.19943 113.26167 3398 ft 252 kts 14°
2026-05-05 13:57 23.21637 113.26636 3067 ft 251 kts 15°
2026-05-05 13:57 23.23319 113.27093 2728 ft 244 kts 15°
2026-05-05 13:57 23.24920 113.27524 2442 ft 231 kts 15°
2026-05-05 13:57 23.26439 113.27933 2119 ft 218 kts 15°
2026-05-05 13:58 23.27861 113.28316 1850 ft 202 kts 16°
2026-05-05 13:58 23.29158 113.28665 1622 ft 181 kts 16°
2026-05-05 13:58 23.30302 113.28972 1357 ft 161 kts 16°
2026-05-05 13:58 23.31356 113.29258 1155 ft 152 kts 15°
2026-05-05 13:59 23.33379 113.29805 782 ft 146 kts 14°
2026-05-05 13:59 23.34363 113.30071 596 ft 145 kts 14°
2026-05-05 14:00 23.36307 113.30596 234 ft 145 kts 14°
2026-05-05 14:00 23.37282 113.30858 58 ft 143 kts 14°
2026-05-05 14:00 23.38102 113.31082 55 ft 92 kts 14°
2026-05-05 14:00 23.38545 113.31201 54 ft 34 kts 14°
2026-05-05 14:01 23.38684 113.31202 54 ft 17 kts 348°
2026-05-05 14:01 23.38796 113.31167 54 ft 17 kts 343°
2026-05-05 14:01 23.38917 113.31128 54 ft 18 kts 344°
2026-05-05 14:01 23.39038 113.31134 54 ft 17 kts 15°
2026-05-05 14:02 23.39130 113.31121 51 ft 12 kts 287°
2026-05-05 14:02 23.39107 113.31040 54 ft 13 kts 253°
2026-05-05 14:02 23.39127 113.30931 52 ft 18 kts 288°
2026-05-05 14:02 23.39166 113.30800 51 ft 17 kts 288°
2026-05-05 14:03 23.39222 113.30779 53 ft 9 kts
2026-05-05 14:03 23.39323 113.30807 53 ft 19 kts 14°
2026-05-05 14:03 23.39439 113.30838 54 ft 13 kts
2026-05-05 14:03 23.39498 113.30782 52 ft 13 kts 286°
2026-05-05 14:04 23.39523 113.30684 54 ft 14 kts 287°
2026-05-05 14:04 23.39551 113.30588 54 ft 13 kts 287°
2026-05-05 14:04 23.39584 113.30498 54 ft 12 kts 325°
2026-05-05 14:04 23.39634 113.30495 54 ft 2 kts
2026-05-05 14:05 23.39639 113.30496 54 ft 2 kts 11°
2026-05-05 14:05 23.39644 113.30497 54 ft 0 kts 11°